AirNav   Air Wisconsin Up To $57,000 Bonus
 
 1636 users online  

OK94 Sandridge Airpark Inc
Collinsville, Oklahoma, USA

GOING TO COLLINSVILLE?


FAA INFORMATION EFFECTIVE 03 NOVEMBER 2022

Location

FAA Identifier: OK94
Lat/Long: 36-21-16.4750N 095-48-11.6000W
36-21.274583N 095-48.193333W
36.3545764,-95.8032222
(estimated)
Elevation: 690 ft. / 210 m (estimated)
Variation: 06E (1985)
From city: 2 miles SE of COLLINSVILLE, OK
Time zone: UTC -6 (UTC -5 during Daylight Saving Time)
Zip code: 74021

Airport Operations

Airport use: Private use. Permission required prior to landing
Activation date: 05/1972
Control tower: no
ARTCC: KANSAS CITY CENTER
FSS: MC ALESTER FLIGHT SERVICE STATION
Attendance: UNATNDD
Wind indicator: yes
Segmented circle: no
Lights: ACTVT LIRL RWY 17/35 - 122.7.

Airport Communications

WX ASOS at TUL (10 nm SW): PHONE 918-831-6772
WX AWOS-3P at GCM (16 nm E): 119.925 (918-343-0184)

Nearby radio navigation aids

VOR radial/distance  VOR name  Freq  Var
TULr348/9.5TULSA VORTAC114.4008E
BVOr152/30.6BARTLESVILLE VOR/DME117.9008E
OKMr356/39.8OKMULGEE VOR/DME114.9008E

Airport Services

Airframe service: NONE
Powerplant service: NONE

Runway Information

Runway 17/35

Dimensions: 2545 x 110 ft. / 776 x 34 m
Surface: turf
Runway edge lights: low intensity
RUNWAY 17  RUNWAY 35
Latitude: 36-21.484167N36-21.065000N
Longitude: 095-48.193333W095-48.193333W
Elevation: 680.0 ft.690.0 ft.
Traffic pattern: leftleft
Displaced threshold: 580 ft.305 ft.
Obstructions: pline, marked, 300 ft. from runwaynone

Airport Ownership and Management from official FAA records

Ownership: Privately-owned
Owner: SANDRIDGE AIRPARK INC
13869 N. 152 EAST
COLLINSVILLE, OK 74021
Manager: RUSTY LOUDENSLAGER
13869 N. 152ND E. AVE.
COLLINSVILLE, OK 74021
Phone 918-633-5607

Airport Operational Statistics

Aircraft based on the field: 40
Single engine airplanes: 39
Ultralights: 1
    

Additional Remarks

FOR CD CTC TULSA APCH AT 918-831-6714/6720.

Instrument Procedures

There are no published instrument procedures at OK94.

Some nearby airports with instrument procedures:

KTUL - Tulsa International Airport (10 nm SW)
KGCM - Claremore Regional Airport (16 nm E)
KOWP - William R Pogue Municipal Airport (20 nm SW)
KRVS - Tulsa Riverside Airport (21 nm SW)
H71 - Mid-America Industrial Airport (24 nm E)
 
Loc | Ops | Rwys | IFR | FBO | Links
Com | Nav | Svcs | Stats | Notes
Area around OK94 (Sandridge Airpark Inc)
 
Road maps at: MapQuest Bing Google
 
Aerial photo
WARNING: Photo may not be current or correct
Aerial photo of OK94 (Sandridge Airpark Inc)
Do you have a better or more recent aerial photo of Sandridge Airpark Inc that you would like to share? If so, please send us your photo.

 
Sectional chart

 
Airport distance calculator
Flying to Sandridge Airpark Inc? Find the distance to fly.

From to OK94

Sunrise and sunset
Times for 28-Nov-2022
 Local
(UTC-6)
 Zulu
(UTC)
Morning civil twilight06:4612:46
Sunrise07:1413:14
Sunset17:0823:08
Evening civil twilight17:3623:36

Current date and time
Zulu (UTC)  28-Nov-2022 18:48:34
Local (UTC-6)  28-Nov-2022 12:48:34
 
METAR
KTUL 
10nm SW 
281753Z 17011KT 10SM FEW110 13/04 A2988 RMK AO2 PRESFR SLP117 T01280044 10128 20000 58019
KGCM 
16nm E 
281835Z AUTO 16012G18KT 10SM CLR 13/05 A2985 RMK AO2
KOWP 
20nm SW 
281835Z AUTO 17007G14KT 10SM CLR 15/04 A2985 RMK AO2 T01510041
TAF
KTUL 
10nm SW 
281728Z 2818/2918 16014G23KT P6SM SCT250 FM290400 17019G28KT P6SM BKN250 WS020/19050KT FM291400 19018G28KT P6SM SCT025
NOTAMs
Click for the latest NOTAMs
NOTAMs are issued by the DoD/FAA and will open in a separate window not controlled by AirNav.

 

 
 

Would you like to see your business listed on this page?

 If your business provides an interesting product or service to pilots, flight crews, aircraft, or users of the Sandridge Airpark Inc, you should consider listing it here.  To start the listing process, click on the button below
 
Add a business
 

Other Pages about Sandridge Airpark Inc

Update a link
 
Copyright © AirNav, LLC. All rights reserved. Privacy Policy  Contact